Location: *
(42.5304°N, 0.8322°E)
Time: 14:11:22
(UTC+00:00)

Daily predictions for brighter satellites

Satellite Brightness Start Highest point End
(mag) Time Altitude Azimuth Time Altitude Azimuth Time Altitude Azimuth
ATLAS 2AS CENTAUR R/B 4.1 16:46:51 10° WSW 16:54:15 39° NW 17:01:39 10° NNE
Okean O Rocket 2.2 16:53:13 10° S 16:57:31 62° WSW 17:01:50 10° NNW
CZ-4B R/B 3.8 16:54:43 10° S 16:59:58 63° WSW 17:05:21 10° NNW
Lacrosse 5 rocket 1.9 16:57:23 10° WSW 17:01:39 54° NW 17:05:41 10° NE
Cosmos 1666 3.9 17:00:01 10° NNE 17:02:55 21° ENE 17:05:46 10° SE
Cosmos 2242 Rocket 4.2 16:59:52 10° SSE 17:04:02 36° E 17:08:14 10° NNE
Cosmos 1707 Rocket 4.4 17:03:14 10° SSW 17:07:36 54° W 17:12:00 10° N
Aureole 1 Rocket 3.6 17:06:58 10° SSE 17:09:17 21° ESE 17:11:21 12° NE
SL-4 R/B 3.2 17:06:29 10° WNW 17:09:44 28° NNW 17:13:11 10° NE
CZ-4 R/B 2.9 17:08:50 10° E 17:11:02 15° ENE 17:13:13 10° NNE
Cosmos 2278 Rocket 2.2 17:07:27 10° NNW 17:13:08 75° ENE 17:18:46 10° SSE
STARLINK-52 4.0 17:10:12 10° SSW 17:13:26 36° SE 17:16:09 13° ENE
Cosmos 2360 Rocket 4.4 17:10:58 10° W 17:14:55 19° NW 17:18:52 10° N
Shenzhou-11 Module 1.6 17:12:12 10° W 17:14:57 87° N 17:17:18 13° E
Okean-O 3.1 17:11:37 10° SE 17:15:43 38° ENE 17:19:49 10° N
SMAP 3.0 17:13:06 10° SSE 17:17:43 74° ENE 17:22:24 10° N
NOAA 12 4.3 17:15:01 10° SE 17:20:07 50° ENE 17:25:13 10° N
STARLINK-29 3.6 17:18:09 10° SSW 17:21:34 49° SE 17:24:05 17° ENE
USA 215 3.9 17:18:17 10° NE 17:24:32 49° NNW 17:30:44 10° WSW
PSLV R/B 4.5 17:20:54 10° N 17:25:01 60° WNW 17:29:03 10° SSW
Cosmos 2369 Rocket 4.0 17:23:29 10° NNE 17:25:15 11° NE 17:25:28 11° NE
SL-16 R/B 3.0 17:21:45 10° SSE 17:26:43 32° ESE 17:30:56 14° NE
Cosmos 1743 4.1 17:25:47 10° NNE 17:28:33 18° ENE 17:31:18 10° ESE
ISS -3.6 17:25:20 10° WNW 17:28:41 75° SW 17:32:03 10° SE
Cosmos 1908 Rocket 3.8 17:24:38 10° N 17:28:53 47° ENE 17:33:05 10° SSE
OAO 3 Rocket 4.5 17:26:12 10° SW 17:30:21 32° S 17:34:32 10° ESE
Cosmos 1900 4.2 17:25:40 10° NNW 17:30:34 70° ENE 17:35:25 10° SE
Cosmos 2251 Rocket 3.9 17:25:29 10° SSW 17:30:46 68° WNW 17:36:03 10° NNE
COSMO-SKYMED 1 3.2 17:29:39 10° NNE 17:33:35 34° E 17:37:33 10° SSE
AQUARIUS 4.3 17:30:53 10° S 17:35:23 80° WSW 17:39:55 10° NNW
Cosmos 2333 Rocket 3.7 17:30:31 10° WSW 17:35:40 33° NW 17:40:52 10° N
STARLINK-60 3.1 17:33:38 10° WSW 17:37:00 74° NW 17:38:58 23° NE
Cosmos 2237 Rocket 2.3 17:31:23 10° SSW 17:37:05 79° WNW 17:42:49 10° NNE
Cosmos 1812 3.7 17:34:40 10° SSW 17:38:25 48° WNW 17:42:10 10° N
Nadezhda 4 Rocket 4.2 17:32:09 10° S 17:38:28 81° W 17:44:50 10° N
YAOGAN 1 3.5 17:35:19 10° ESE 17:38:51 25° ENE 17:42:25 10° NNE
Envisat 2.9 17:37:15 10° SSE 17:42:17 67° ENE 17:47:20 10° N
Okean 1-7 3.3 17:38:44 10° SSE 17:42:50 44° E 17:46:42 12° NNE
YAOGAN 6 2.9 17:39:51 10° SE 17:43:09 39° ENE 17:46:31 10° N
CORIOLIS 4.4 17:38:29 10° S 17:43:55 78° WSW 17:49:23 10° NNW
Cosmos 292 Rocket 3.7 17:40:22 10° NNW 17:45:14 66° ENE 17:50:02 10° SSE
COBE Rocket 4.3 17:43:43 10° N 17:48:18 60° WNW 17:52:55 10° SSW
Cosmos 1140 Rocket 4.3 17:44:31 10° SSE 17:48:54 29° E 17:50:28 25° ENE
Cosmos 2219 Rocket 4.0 17:45:29 10° WSW 17:50:09 26° NW 17:54:52 10° N
Cosmos 407 Rocket 3.8 17:46:59 10° S 17:51:54 46° ESE 17:55:05 21° NE
USA 267 3.6 17:51:26 10° SE 17:57:56 66° SW 18:04:27 10° NW
Cosmos 2026 Rocket 3.8 17:54:32 10° S 18:00:32 69° E 18:06:34 10° NNE
Cosmos 1943 Rocket 3.3 17:59:24 10° N 18:03:07 23° NE 18:03:07 23° NE
BREEZE-M R/B 3.7 18:04:30 10° WNW 18:08:45 29° N 18:09:04 29° N
Cosmos 1867 4.1 18:04:53 10° NNW 18:09:56 37° NE 18:10:41 35° ENE
CSL-04 Rocket 3.6 18:05:22 10° SSE 18:10:30 55° ENE 18:15:41 10° N
Cosmos 1441 Rocket 3.1 18:09:42 10° NNW 18:13:33 82° WSW 18:17:17 10° S
Cosmos 921 Rocket 2.8 18:10:39 10° NNW 18:14:56 73° ENE 18:19:16 10° SSE
Cosmos 2297 3.6 18:11:23 10° NNW 18:17:07 76° ENE 18:22:46 10° SSE
Cosmos 1417 Rocket 4.5 18:13:20 10° N 18:19:21 55° E 18:25:21 10° SSE
SKYMED 2 3.8 18:18:20 16° N 18:21:49 70° WNW 18:26:07 10° SSW
Cosmos 2221 Rocket 3.8 18:18:45 10° S 18:22:36 49° ESE 18:22:36 49° ESE
Cosmos 1782 Rocket 3.6 18:19:12 10° N 18:23:34 78° W 18:27:52 10° S
Sich 1 Rocket 3.4 18:20:49 10° N 18:25:14 82° E 18:29:37 10° S
FALCON 9 DEB 4.1 18:23:03 10° W 18:26:22 40° NNW 18:26:23 40° NNW
CSL-04 Debris 4.0 18:21:26 10° SSE 18:26:53 79° ENE 18:32:20 10° NNW
Meteor 1-18 Rocket 4.1 18:21:51 10° S 18:27:36 82° E 18:31:59 17° NNE
Genesis I 3.3 18:29:24 10° NW 18:33:16 72° WSW 18:33:25 71° SW
Cosmos 1655 Rocket 3.9 18:27:42 10° S 18:33:54 61° E 18:37:01 30° NNE
Cosmos 1241 Rocket 4.5 18:33:42 10° SSW 18:39:55 57° ESE 18:40:36 54° E
Lacrosse 5 rocket 3.6 18:39:05 10° WNW 18:41:34 15° NNW 18:41:49 15° NNW
DMSP B5D1-3 4.3 18:44:09 72° NE 18:44:35 78° ESE 18:49:41 10° S
Cosmos 1190 Rocket 4.2 18:40:07 10° SSW 18:45:18 68° WNW 18:47:08 40° N
CZ-4 R/B 2.4 18:41:59 10° S 18:45:43 43° W 18:49:26 10° NNW
Meteor 2-9 Rocket 4.1 18:40:51 10° N 18:46:45 76° E 18:52:31 10° SSE
Cosmos 676 Rocket 3.8 18:42:01 10° SSW 18:46:54 73° SE 18:46:54 73° SE
Okean 1 4.3 18:45:05 10° SSW 18:48:54 44° WNW 18:49:42 38° NW
NOAA 11 4.1 18:44:09 10° SSE 18:49:35 87° WSW 18:55:07 10° NNW
SL-4 R/B 4.1 18:47:07 10° NW 18:48:47 18° NNW 18:48:47 18° NNW
Cosmos 1954 Rocket 4.0 18:51:00 10° SSW 18:55:30 68° S 18:55:30 68° S
CZ-4C R/B 4.1 19:05:48 10° S 19:06:34 14° S 19:06:34 14° S
Cosmos 2369 Rocket 3.6 19:04:56 10° NNW 19:07:18 25° N 19:07:18 25° N
SL-16 R/B 3.4 19:05:26 10° SW 19:10:43 39° WNW 19:12:51 28° NNW
YAOGAN 1 4.4 19:11:02 10° SSW 19:14:50 30° W 19:18:39 10° NW
S3M 4.3 19:14:23 10° NNW 19:20:31 63° W 19:26:33 10° S
Lacrosse 5 4.0 19:21:03 10° SSW 19:22:23 18° SSW 19:22:23 18° SSW
Meteor 2-4 Rocket 4.4 19:21:49 10° SSW 19:26:24 52° SW 19:26:24 52° SW
Cosmos 2266 Rocket 4.5 19:22:48 10° SSW 19:27:43 55° SSW 19:27:43 55° SSW
Cosmos 2344 4.3 19:30:47 10° NNW 19:40:31 66° NE 19:40:45 66° NE
Cosmos 1943 Rocket 4.0 19:42:31 10° NNW 19:44:42 24° NW 19:44:42 24° NW
CZ-3B R/B 4.4 20:02:35 10° SSW 20:04:32 17° SSW 20:04:32 17° SSW
